フィンレー彗星

15P/Finlay (2021)

English version
Home page
Updated on December 18, 2022

---------------------------------------------------------------------

・ プロフィール

・ 写真集

・ 軌道要素

Epoch 2022 Jan. 21.0 TT = JDT 2459600.5
T 2021 July 13.47804 TT                                 Rudenko
q   0.9921020            (2000.0)            P               Q
n   0.15012007     Peri.  347.83440     +0.99928438     -0.02536614
a   3.5062554      Node    13.71250     +0.03601024     +0.86499676
e   0.7170480      Incl.    6.79778     -0.01157520     +0.50113588
P   6.57
From 1777 observations 2008 Apr. 27-2022 Jan. 30, mean residual 0".9.
     Nongravitational parameters A1 = +0.22, A2 = -0.0233.

・ 星図

・ 光度変化

        m1 = 10.0 + 5 logΔ + 30.0 log r(t - 10)  [   , 10]  (              〜2021年 7月23日)
        m1 = 10.0 + 5 logΔ + 25.0 log r(t - 10)  [ 10,113]  (2021年 7月23日〜2021年11月 3日)
        m1 = 13.2 + 5 logΔ + 10.0 log r          [113,   ]  (2021年11月 3日〜              )

---------------------------------------------------------------------

軌道要素はM.P.E.C. 2022-C56に掲載されたものです。
星図はステラナビゲータ Ver.10 (アストロアーツ) で作成したものです。
光度グラフはComet for Windowsで作成したものです。

---------------------------------------------------------------------

Copyright(C) Seiichi Yoshida (comet@aerith.net). All rights reserved.